Home > Time Zones > World Clock > Weather > Iran > Tabriz > Past weeks

Flag for Iran Weather past 2 weeks in Tabriz, Iran

Now
34 °F

Clear.


Feels Like: 34 °F
Forecast: 27 / 40 °F
Wind: No wind

Location: Tabriz Airport

Current Time: Dec 23, 2014 at 4:09:20 AM

Latest Report: Dec 23, 2014 at 3:20 AM


Visibility: 5 mi

Pressure: 29.95 "Hg

Humidity: 87%

Dew point: 30 °F

Location of TabrizLocation

Historic Weather in Tabriz — Graph

°F

Tabriz temperature yesterday

Maximum temperature yesterday: 39 °F (at 1:30 PM)
Minimum temperature yesterday: 28 °F (at 4:30 AM)
Average temperature yesterday: 34 °F

Past Weeks' High & Low Weather Summary

 TemperatureHumidityPressure
High52 °F (Dec 9, 2:00 PM)100% (Dec 10, 3:30 AM)30.42 "Hg (Dec 10, 3:30 AM)
Low28 °F (Dec 22, 4:30 AM)50% (Dec 8, 1:00 PM)29.98 "Hg (Dec 22, 2:00 PM)
Average39 °F83%30.25 "Hg
* Reported Dec 8 2:30 AM — Dec 23 2:30 AM, Tabriz, Weather by CustomWeather, © 2014

Note: Actual official high and low records may vary slightly from our data, if they occured in-between our weather recording intervals... More about our weather records

Advertising

Tabriz weather history for previous 24 hours

 ConditionsComfort  
Time TempWeatherWind HumidityBarometerVisibility
2:30 AM
Dec 23
34 °FClear.5 mph87%29.98 "Hg5 mi
1:30 AM32 °FClear.5 mph87%29.98 "Hg5 mi
12:30 AM32 °FClear.5 mph93%29.98 "Hg4 mi
11:30 PM
Dec 22
32 °FPassing clouds.5 mph93%29.98 "Hg4 mi
10:30 PM32 °FPassing clouds.5 mph93%29.98 "Hg4 mi
9:30 PM32 °FPassing clouds.5 mph93%29.98 "Hg4 mi
8:30 PM34 °FPassing clouds.5 mph93%29.98 "Hg4 mi
7:30 PM36 °FPassing clouds.No wind87%29.98 "Hg4 mi
6:30 PM37 °FPassing clouds.No wind81%29.98 "Hg4 mi
6:00 PM37 °FFog.5 mph81%29.98 "Hg4 mi
5:30 PM37 °FScattered clouds.No wind75%29.98 "Hg3 mi
5:00 PM37 °FScattered clouds.5 mph81%29.98 "Hg3 mi
4:20 PM39 °FScattered clouds.No wind75%29.98 "Hg4 mi
2:50 PM37 °FScattered clouds.5 mph75%29.98 "Hg4 mi
2:00 PM37 °FScattered clouds.5 mph75%29.98 "Hg4 mi
1:30 PM39 °FScattered clouds.7 mph70%30.01 "Hg3 mi
1:00 PM37 °FScattered clouds.7 mph75%30.01 "Hg2 mi
12:30 PM37 °FScattered clouds.7 mph75%30.01 "Hg2 mi
12:00 PM37 °FScattered clouds.9 mph75%30.04 "Hg2 mi
11:30 AM37 °FScattered clouds.7 mph75%30.04 "Hg2 mi
11:00 AM36 °FFog.5 mph81%30.04 "Hg2 mi
10:30 AM36 °FFog.2 mph81%30.04 "Hg2 mi
10:00 AM36 °FFog.2 mph81%30.04 "Hg2 mi
9:00 AM34 °FFog.No wind93%30.04 "Hg1 mi
8:30 AM32 °FIce fog.2 mph93%30.04 "Hg1 mi
8:00 AM32 °FIce fog.No wind93%30.04 "Hg1 mi
7:00 AM32 °FIce fog.No wind93%30.04 "Hg3 mi
6:30 AM30 °FPassing clouds.5 mph93%30.04 "Hg4 mi
5:30 AM28 °FPassing clouds.No wind93%30.04 "Hg4 mi
4:30 AM28 °FPassing clouds.No wind86%30.04 "Hg5 mi
Weather by CustomWeather, © 2014

See weather overviewHow to use our weather pages